[[{"header":{"parameterUnit":"m.s-1","parameterCategory":1,"la1":30.2991,"la2":30.254,"lo1":-89.0895,"lo2":-89.0444,"dy":0.0017,"dx":0.0017,"nx":28,"ny":28,"refTime":"2024-03-13T03:00:00:Z","depth":0,"parameterNumber":2,"parameterNumberName":"U-component_of_WINDS"},"data":[0,0,0,0,0,0,0,0,0,0,0,0,0,0,0,0,0,0,0,0,0,0,0,0,0,0,0,0,0,0,0,0,0,0,0,0,0,0,0,0,0,0,0,0,0,0,0,0,0,0,0,0,0,0,0,0,0,0,-1.2356,-1.2356,0,-1.234,-1.234,-1.234,-1.2318,-1.2318,-1.2318,-1.2317,-1.2303,-1.2303,-1.2303,0,0,0,0,0,0,0,0,0,0,0,0,0,-1.237,-1.2369,-1.2356,-1.2356,-1.2356,-1.234,-1.234,-1.234,-1.2319,-1.2318,-1.2318,-1.2317,-1.2303,-1.2303,-1.2303,0,0,0,0,0,0,0,0,0,0,0,0,0,-1.236,-1.2369,-1.2356,-1.2343,-1.2342,-1.234,-1.234,-1.234,-1.2319,-1.2318,-1.2318,-1.2317,-1.2303,-1.2303,-1.2303,-1.2313,0,0,-1.2303,-1.2303,0,0,0,0,0,0,0,0,-1.236,-1.2359,-1.2345,-1.2344,-1.2342,-1.2331,-1.2339,-1.2331,-1.2319,-1.2327,-1.2317,-1.2317,-1.2313,-1.2312,-1.231,-1.2312,-1.2312,-1.2303,-1.2303,-1.2302,-1.2302,0,0,0,0,0,0,0,-1.2361,-1.236,-1.235,-1.2345,-1.2343,-1.2339,-1.2337,-1.2338,-1.2323,-1.2327,-1.2325,-1.2323,-1.2312,-1.231,-1.231,-1.2312,-1.2303,-1.2303,-1.2302,-1.2302,-1.2322,-1.2323,0,0,0,0,0,0,-1.2363,-1.2361,-1.235,-1.2349,-1.235,-1.2339,-1.2337,-1.2335,-1.2323,-1.2321,-1.2324,-1.2322,-1.2311,-1.231,-1.2309,-1.2321,-1.2302,-1.2302,-1.2302,-1.2322,-1.2322,-1.2323,0,0,0,0,0,0,-1.2364,-1.2363,-1.2351,-1.2354,-1.2353,-1.2339,-1.2338,-1.2335,-1.2333,-1.2321,-1.2319,-1.2325,-1.231,-1.2309,-1.2312,-1.232,-1.2302,-1.2302,-1.2321,-1.2322,-1.2323,-1.2344,0,0,0,0,0,0,-1.2364,-1.2363,-1.2366,-1.2355,-1.2352,-1.2354,-1.2338,-1.2335,-1.2333,-1.2331,-1.2321,-1.2319,-1.231,-1.2312,-1.2312,-1.232,-1.2302,-1.232,-1.2321,-1.2322,-1.2343,-1.2346,-1.2348,0,0,0,0,0,-1.2365,-1.2373,-1.2367,-1.2365,-1.2356,-1.2354,-1.2353,-1.2342,-1.2334,-1.2337,-1.233,-1.2319,-1.2319,-1.2313,-1.2312,-1.232,-1.232,-1.2321,-1.2322,-1.2342,-1.2345,-1.2348,0,0,0,0,0,0,-1.2387,-1.2372,-1.2364,-1.2369,-1.2363,-1.2351,-1.2355,-1.2346,-1.2343,-1.2341,-1.2327,-1.2325,-1.233,-1.2325,-1.2319,-1.233,-1.2318,-1.2319,-1.2333,-1.2336,-1.2339,-1.234,-1.2302,0,0,0,0,0,-1.2392,-1.2391,-1.2378,-1.2384,-1.2381,-1.2369,-1.2367,-1.2359,-1.2353,-1.235,-1.2343,-1.2338,-1.2336,-1.2336,-1.2334,-1.2342,-1.234,-1.2347,-1.2349,-1.2352,-1.2353,-1.2358,-1.2361,-1.2327,-1.2327,-1.2327,0,0,-1.2403,-1.2395,-1.2395,-1.2388,-1.2382,-1.2383,-1.2367,-1.2367,-1.2368,-1.2351,-1.2353,-1.2347,-1.2341,-1.2346,-1.2349,-1.2342,-1.2362,-1.2353,-1.2355,-1.2355,-1.2359,-1.2362,-1.2365,-1.2328,-1.2328,-1.2328,0,0,-1.2424,-1.2417,-1.2421,-1.2416,-1.2408,-1.2399,-1.24,-1.2389,-1.2385,-1.2387,-1.2374,-1.2375,-1.2372,-1.2368,-1.2366,-1.2385,-1.2376,-1.2385,-1.2399,-1.2404,-1.2406,-1.2409,-1.2416,-1.2419,-1.2386,-1.2386,-1.2386,0,-1.2439,-1.2438,-1.2425,-1.2426,-1.2424,-1.2407,-1.2412,-1.2408,-1.2399,-1.2398,-1.2391,-1.2389,-1.2383,-1.2388,-1.2392,-1.2391,-1.2392,-1.2386,-1.2407,-1.2409,-1.2411,-1.2418,-1.2421,-1.2387,-1.2387,-1.2387,-1.2387,0,-1.2458,-1.2457,-1.2462,-1.2454,-1.2451,-1.2454,-1.2442,-1.2442,-1.2433,-1.2426,-1.2429,-1.2421,-1.2418,-1.2418,-1.241,-1.2422,-1.2418,-1.2409,-1.2397,-1.2416,-1.2422,-1.2425,-1.2389,-1.2389,-1.2388,-1.2388,0,0,-1.2492,-1.2476,-1.2478,-1.2475,-1.2464,-1.2464,-1.2466,-1.2462,-1.2463,-1.2458,-1.246,-1.2458,-1.245,-1.2447,-1.2439,-1.2443,-1.2459,-1.2433,-1.2433,-1.2439,-1.2472,-1.248,-1.2483,-1.2452,-1.2453,-1.2453,-1.2473,0,-1.2512,-1.2514,-1.2502,-1.2509,-1.2508,-1.2493,-1.2495,-1.249,-1.2483,-1.2482,-1.2474,-1.2474,-1.2462,-1.2461,-1.2464,-1.2456,-1.2466,-1.2455,-1.2455,-1.2455,-1.2458,-1.2486,-1.2494,-1.2513,-1.2475,-1.2476,-1.2476,0,-1.2535,-1.253,-1.2536,-1.2526,-1.2525,-1.2527,-1.2523,-1.2522,-1.2516,-1.251,-1.2507,-1.2497,-1.2499,-1.2488,-1.2491,-1.2484,-1.2483,-1.248,-1.248,-1.248,-1.2468,-1.2488,-1.2519,-1.2522,-1.248,-1.248,-1.2479,0,-1.256,-1.2556,-1.2559,-1.2556,-1.2544,-1.2546,-1.2541,-1.2533,-1.2532,-1.2528,-1.2527,-1.2524,-1.2522,-1.252,-1.251,-1.2502,-1.2515,-1.2502,-1.2511,-1.2512,-1.2515,-1.2515,-1.2547,-1.2514,-1.2514,-1.2514,-1.2514,0,-1.2584,-1.2588,-1.257,-1.2573,-1.2577,-1.2563,-1.2569,-1.2562,-1.2556,-1.2557,-1.2543,-1.2545,-1.253,-1.253,-1.2522,-1.2527,-1.2526,-1.2522,-1.252,-1.2524,-1.2525,-1.2524,-1.2523,-1.2514,-1.2514,-1.2514,-1.2514,0,-1.2613,-1.2602,-1.2604,-1.2592,-1.2589,-1.2593,-1.2583,-1.2585,-1.2577,-1.2578,-1.2578,-1.2566,-1.2565,-1.2554,-1.2551,-1.2545,-1.2554,-1.2549,-1.2556,-1.2555,-1.2565,-1.2564,-1.2598,-1.2602,-1.2565,-1.2566,-1.2566,0,-1.263,-1.2633,-1.2621,-1.262,-1.2615,-1.2615,-1.2613,-1.2599,-1.2598,-1.2591,-1.2594,-1.2592,-1.2589,-1.2589,-1.258,-1.2578,-1.2574,-1.2586,-1.2573,-1.2577,-1.2575,-1.2575,-1.2576,-1.2589,-1.2589,-1.2589,-1.259,0,-1.266,-1.2654,-1.2651,-1.2647,-1.2645,-1.2641,-1.2636,-1.2637,-1.2622,-1.2621,-1.262,-1.2618,-1.2615,-1.2614,-1.261,-1.2605,-1.2595,-1.2593,-1.2596,-1.26,-1.2604,-1.2603,-1.2564,-1.2593,-1.2593,-1.2592,-1.2592,-1.2592,-1.2684,-1.2686,-1.2678,-1.2676,-1.267,-1.2666,-1.2667,-1.2659,-1.2658,-1.2654,-1.2646,-1.2646,-1.264,-1.2633,-1.263,-1.263,-1.2624,-1.2627,-1.2628,-1.2629,-1.2631,-1.2603,-1.2629,-1.2629,-1.2629,-1.2629,-1.2629,0,-1.2714,-1.2708,-1.2706,-1.2699,-1.2698,-1.2687,-1.2682,-1.2681,-1.2682,-1.2676,-1.2674,-1.2673,-1.2671,-1.2662,-1.266,-1.2662,-1.2657,-1.2662,-1.2662,-1.2661,-1.2636,-1.2635,-1.2665,-1.2665,-1.2665,-1.2665,-1.2665,-1.2665,-1.2729,-1.2733,-1.2726,-1.2726,-1.272,-1.272,-1.2718,-1.2714,-1.2709,-1.2708,-1.2707,-1.2701,-1.2694,-1.2691,-1.2689,-1.2686,-1.2686,-1.2693,-1.2689,-1.2666,-1.2663,-1.2659,-1.2658,-1.2693,-1.2693,-1.2713,-1.2713,-1.2714]},{"header":{"parameterUnit":"m.s-1","parameterCategory":1,"la1":30.2991,"la2":30.254,"lo1":-89.0895,"lo2":-89.0444,"dy":0.0017,"dx":0.0017,"nx":28,"ny":28,"refTime":"2024-03-13T03:00:00:Z","depth":0,"parameterNumber":3,"parameterNumberName":"V-component_of_WINDS"},"data":[0,0,0,0,0,0,0,0,0,0,0,0,0,0,0,0,0,0,0,0,0,0,0,0,0,0,0,0,0,0,0,0,0,0,0,0,0,0,0,0,0,0,0,0,0,0,0,0,0,0,0,0,0,0,0,0,0,0,0.8219,0.8219,0,0.8282,0.8283,0.8284,0.8292,0.8291,0.8291,0.829,0.8352,0.8354,0.8356,0,0,0,0,0,0,0,0,0,0,0,0,0,0.8099,0.8102,0.8218,0.8219,0.822,0.8282,0.8283,0.8284,0.8292,0.8291,0.8291,0.829,0.8351,0.8354,0.8356,0,0,0,0,0,0,0,0,0,0,0,0,0,0.8156,0.8102,0.8218,0.8232,0.8234,0.8282,0.8283,0.8284,0.8292,0.8291,0.829,0.829,0.835,0.8353,0.8357,0.8395,0,0,0.8367,0.8368,0,0,0,0,0,0,0,0,0.8153,0.816,0.8229,0.8231,0.8233,0.8278,0.8264,0.8321,0.8292,0.827,0.829,0.8289,0.8328,0.8333,0.8347,0.8398,0.8401,0.8367,0.8369,0.8371,0.8371,0,0,0,0,0,0,0,0.8149,0.8157,0.8244,0.823,0.8232,0.8233,0.824,0.8274,0.8303,0.8272,0.8272,0.828,0.8329,0.8344,0.8348,0.8401,0.8367,0.837,0.8372,0.8373,0.8485,0.8486,0,0,0,0,0,0,0.8143,0.8154,0.8242,0.8245,0.819,0.8236,0.8244,0.8265,0.8303,0.8308,0.8281,0.828,0.8338,0.8344,0.835,0.8397,0.837,0.8374,0.8375,0.8484,0.8485,0.8487,0,0,0,0,0,0,0.814,0.8151,0.8239,0.82,0.8211,0.8239,0.8262,0.8266,0.8281,0.831,0.8314,0.8291,0.8338,0.8346,0.8384,0.8399,0.8375,0.8378,0.8483,0.8485,0.8486,0.8491,0,0,0,0,0,0,0.8137,0.815,0.8166,0.82,0.8213,0.8273,0.8263,0.8268,0.8287,0.8287,0.832,0.8325,0.8338,0.8379,0.8387,0.8403,0.8381,0.8482,0.8484,0.8486,0.8489,0.8492,0.8495,0,0,0,0,0,0.8133,0.8164,0.8167,0.8177,0.8234,0.8274,0.8281,0.8296,0.8289,0.8304,0.8322,0.8324,0.8396,0.8383,0.8392,0.8409,0.8481,0.8483,0.8485,0.8488,0.8492,0.8495,0,0,0,0,0,0,0.813,0.8169,0.8172,0.8216,0.8242,0.8275,0.8295,0.8299,0.8327,0.8325,0.8342,0.8349,0.8386,0.8401,0.8386,0.8447,0.8438,0.8442,0.8436,0.844,0.8443,0.8438,0.8383,0,0,0,0,0,0.8134,0.8164,0.8196,0.8232,0.8245,0.8268,0.8285,0.8295,0.8321,0.8332,0.8353,0.8377,0.8405,0.8423,0.8451,0.8491,0.8498,0.8508,0.851,0.8512,0.8516,0.8537,0.8541,0.8494,0.8494,0.8494,0,0,0.8144,0.8169,0.8187,0.8232,0.8253,0.8282,0.8277,0.8308,0.8329,0.8336,0.8374,0.8389,0.8418,0.8457,0.8475,0.8471,0.853,0.8515,0.8517,0.8519,0.854,0.8544,0.8548,0.8495,0.8495,0.8495,0,0,0.8176,0.8199,0.8231,0.8252,0.8283,0.8298,0.8306,0.8338,0.8349,0.8387,0.8392,0.8417,0.8465,0.8485,0.8501,0.8539,0.8541,0.8547,0.8562,0.8582,0.8585,0.8589,0.8601,0.8606,0.8551,0.8551,0.8551,0,0.8184,0.823,0.8246,0.8277,0.8296,0.8304,0.8335,0.8354,0.8393,0.8405,0.84,0.846,0.848,0.8523,0.8532,0.8545,0.8553,0.8544,0.8584,0.8587,0.8591,0.8603,0.8608,0.8551,0.8551,0.8551,0.8551,0,0.8237,0.8268,0.829,0.8328,0.8349,0.838,0.8399,0.8418,0.8425,0.844,0.8477,0.8501,0.8533,0.8543,0.855,0.8587,0.8583,0.8581,0.8571,0.8596,0.8607,0.8612,0.8552,0.8552,0.8552,0.8552,0,0,0.8271,0.8317,0.8324,0.8341,0.8376,0.8399,0.8429,0.8462,0.8477,0.8503,0.8528,0.8568,0.8565,0.8584,0.8592,0.861,0.8637,0.8605,0.8606,0.861,0.8678,0.8679,0.8684,0.8639,0.864,0.8641,0.8675,0,0.8307,0.8363,0.8378,0.8424,0.8452,0.8459,0.8485,0.8509,0.8523,0.8547,0.8562,0.859,0.8585,0.8596,0.8614,0.863,0.8651,0.8628,0.8661,0.8662,0.8654,0.8691,0.8693,0.8724,0.868,0.8681,0.8681,0,0.8357,0.8385,0.8434,0.8464,0.8477,0.85,0.853,0.8554,0.8579,0.8588,0.8608,0.8615,0.8644,0.8633,0.8673,0.8657,0.8671,0.8681,0.8682,0.8686,0.8673,0.8695,0.8735,0.8739,0.8689,0.8688,0.8687,0,0.8376,0.8425,0.8461,0.8475,0.8511,0.8527,0.8543,0.8567,0.8585,0.861,0.8622,0.865,0.8665,0.8685,0.8699,0.8689,0.8738,0.8728,0.8745,0.8744,0.8755,0.8754,0.8797,0.8764,0.8764,0.8764,0.8764,0,0.8415,0.8445,0.847,0.8492,0.8525,0.854,0.8572,0.8587,0.8609,0.8633,0.864,0.8662,0.8679,0.8702,0.8713,0.8744,0.875,0.8757,0.876,0.8757,0.8756,0.8766,0.8764,0.8765,0.8765,0.8765,0.8764,0,0.8442,0.846,0.8499,0.853,0.8538,0.8561,0.8586,0.8607,0.8621,0.8651,0.8658,0.868,0.8708,0.8723,0.8758,0.8765,0.8799,0.8801,0.8791,0.8792,0.8808,0.8806,0.8859,0.8866,0.8829,0.8829,0.883,0,0.8466,0.8489,0.8522,0.8539,0.8555,0.8582,0.86,0.8615,0.8633,0.8663,0.868,0.8708,0.8732,0.8776,0.8794,0.882,0.8822,0.8838,0.8826,0.8821,0.8821,0.8819,0.8821,0.8841,0.8841,0.8841,0.8841,0,0.8505,0.8513,0.8539,0.8569,0.859,0.8614,0.8637,0.865,0.8669,0.8688,0.8718,0.8736,0.8771,0.8799,0.8826,0.884,0.8844,0.8845,0.885,0.8848,0.8841,0.8844,0.8797,0.8844,0.8844,0.8844,0.8843,0.8843,0.8531,0.8552,0.8578,0.8606,0.8625,0.8647,0.8667,0.8683,0.8708,0.8739,0.8746,0.8776,0.8799,0.8837,0.8851,0.8874,0.8871,0.8878,0.888,0.8882,0.8882,0.8837,0.8879,0.8879,0.8879,0.8879,0.8879,0,0.8571,0.8588,0.8614,0.8646,0.8668,0.867,0.8695,0.8713,0.874,0.8762,0.8785,0.8817,0.8844,0.8863,0.889,0.8904,0.8906,0.891,0.8909,0.8912,0.8884,0.8877,0.8908,0.8908,0.8908,0.8908,0.8908,0.8908,0.8594,0.8628,0.8639,0.8682,0.8698,0.8729,0.8743,0.8761,0.8779,0.8815,0.8837,0.885,0.887,0.8898,0.8921,0.8926,0.8935,0.8939,0.8944,0.8917,0.8914,0.8911,0.8904,0.8941,0.8941,0.897,0.8971,0.8971]}]]